Regional Weather Roundup
Issued by NWS New Orleans/Baton Rouge, LA

Home | Current Version | Previous Version | Graphics & Text | Print | Product List | Glossary On
Versions: 1 2 3 4 5 6 7 8 9 10 11 12 13 14 15 16 17 18 19 20 21 22 23 24 25 26 27 28 29 30 31 32 33 34 35 36 37 38 39 40 41 42 43 44 45 46 47 48 49 50
991
ASUS44 KLIX 300801
RWRLIX
NEW ORLEANS REGIONAL WEATHER ROUNDUP
NATIONAL WEATHER SERVICE NEW ORLEANS LA
300 AM CDT TUE SEP 30 2014

NOTE: "FAIR" INDICATES FEW OR NO CLOUDS BELOW 12,000 FEET WITH NO
      SIGNIFICANT WEATHER AND/OR OBSTRUCTIONS TO VISIBILITY.
      SKY/WX - SKY CONDITION AND SIGNIFICANT WEATHER.
      TMP - AIR TEMPERATURE.     DP    - DEWPOINT TEMPERATURE.
      RH  - RELATIVE HUMIDITY.   PRES  - PRESSURE.
      HI  - HEAT INDEX.          WCI   - WIND CHILL INDEX.

*  THESE STATIONS ARE NOT NWS OR FAA STATIONS AND ARE NOT UNDER
   NWS QUALITY CONTROL.

LAZ038-040-048-061>063-065>067-069-300900-
SOUTHEAST LOUISIANA

CITY           SKY/WX    TMP DP  RH WIND       PRES   REMARKS
N.O. AUDUBON   NOT AVBL
N.O. INTL ARPT CLEAR     74  71  91 CALM      29.87S
N.O. LAKEFRONT CLEAR     78  73  84 NE3       29.87S
N.O. DOWNTOWN*   N/A     77  70  78 CALM      29.87S
SLIDELL        CLEAR     70  67  90 CALM      29.87S
BATON ROUGE    CLEAR     71  69  93 CALM      29.87F
BOOTHVILLE     CLEAR     77  74  90 CALM      29.86F
BELLE CHASSE   CLEAR     72  68  87 CALM      29.86S
BOGALUSA*        N/A     70  67  89 CALM      29.89S
GALLIANO*      NOT AVBL
NEW ROADS*       N/A     71  70  98 CALM      29.87S
GONZALES*        N/A     71  71 100 CALM      29.87S
HAMMOND*       NOT AVBL
HOUMA*           N/A    N/A N/A N/A CALM      29.87S FOG
PORT FOURCHON* SUNNY     77  73  88 CALM      29.90S

$$

MSZ070-080>082-300900-
SOUTHERN MISSISSIPPI

CITY           SKY/WX    TMP DP  RH WIND       PRES   REMARKS
MCCOMB         CLEAR     73  67  81 NE3       29.89S
GULFPORT       CLEAR     72  70  93 CALM      29.86S
BILOXI         CLEAR     73  72  97 E5        29.87R
PASCAGOULA     CLEAR     69  68  96 CALM      29.87S

$$

COASTAL OBSERVATIONS
LAKE AND NEARSHORE STATIONS

STATION/POSITION TIME  TEMP    WIND        PRES    WAVE
                       AIR SEA DIR/SP/G            HT/PER
                 (UTC) (F)     (DEG/KT/KT) (MB)    (FT/S)
PASCAGOULA       0700   74      40/  7/  8 1010.7
WAVELAND YACHT   0700   75      40/  4/  4 1010.7
GRAND ISLE       0700   78 80   50/  2/  3 1011.7
SOUTHWEST PASS   0700   80 86  360/  2/  2 1011.4
NEW CANAL        0700   78 77   50/  1/  2 1011.7
SHELL BEACH      0700   78 75   30/  5/  6 1011.0

OFFSHORE STATIONS

STATION/POSITION TIME  TEMP    WIND        PRES    WAVE
                       AIR SEA DIR/SP/G            HT/PER
                 (UTC) (F)     (DEG/KT/KT) (MB)    (FT/S)
64 S DAUPHIN ISL 0750   79 82   60/ 10/ 12 1010.8    2/ 3

$$




USA.gov is the U.S. government's official web portal to all federal, state and local government web resources and services.